TimeCDT,TemperatureF,Dew PointF,Humidity,Sea Level PressureIn,VisibilityMPH,Wind Direction,Wind SpeedMPH,Gust SpeedMPH,PrecipitationIn,Events,Conditions,WindDirDegrees,DateUTC
12:15 AM,41.0,30.2,65,29.94,10.0,SSE,15.0,-,N/A,,Overcast,160,2013-05-14 05:15:00
12:35 AM,41.0,30.2,65,29.93,10.0,SSE,16.1,20.7,N/A,,Overcast,160,2013-05-14 05:35:00
12:55 AM,42.8,30.2,61,29.92,10.0,SSE,16.1,20.7,N/A,,Overcast,160,2013-05-14 05:55:00
1:15 AM,42.8,30.2,61,29.90,10.0,SSE,17.3,20.7,N/A,,Mostly Cloudy,160,2013-05-14 06:15:00
1:35 AM,42.8,30.2,61,29.89,10.0,SSE,15.0,-,N/A,,Mostly Cloudy,150,2013-05-14 06:35:00
1:55 AM,42.8,28.4,57,29.87,10.0,SSE,13.8,21.9,N/A,,Mostly Cloudy,160,2013-05-14 06:55:00
2:15 AM,42.8,28.4,57,29.86,10.0,SSE,18.4,25.3,N/A,,Mostly Cloudy,160,2013-05-14 07:15:00
2:35 AM,42.8,30.2,61,29.85,10.0,SSE,16.1,21.9,N/A,,Overcast,160,2013-05-14 07:35:00
2:55 AM,42.8,30.2,61,29.84,10.0,SSE,16.1,21.9,N/A,,Mostly Cloudy,160,2013-05-14 07:55:00
3:15 AM,42.8,30.2,61,29.82,10.0,SSE,17.3,25.3,N/A,,Scattered Clouds,160,2013-05-14 08:15:00
3:35 AM,42.8,32.0,66,29.81,10.0,SSE,17.3,23.0,N/A,,Partly Cloudy,150,2013-05-14 08:35:00
3:55 AM,42.8,32.0,66,29.81,10.0,SSE,16.1,25.3,N/A,,Scattered Clouds,160,2013-05-14 08:55:00
4:15 AM,42.8,32.0,66,29.79,10.0,SSE,17.3,24.2,N/A,,Overcast,160,2013-05-14 09:15:00
4:35 AM,44.6,32.0,61,29.79,10.0,SSE,15.0,23.0,N/A,,Overcast,160,2013-05-14 09:35:00
4:55 AM,44.6,32.0,61,29.78,10.0,SSE,17.3,25.3,N/A,,Overcast,160,2013-05-14 09:55:00
5:15 AM,44.6,32.0,61,29.78,10.0,South,18.4,24.2,N/A,,Mostly Cloudy,170,2013-05-14 10:15:00
5:35 AM,44.6,32.0,61,29.77,10.0,South,17.3,23.0,N/A,,Partly Cloudy,170,2013-05-14 10:35:00
5:55 AM,44.6,33.8,66,29.76,10.0,SSE,15.0,-,N/A,,Clear,160,2013-05-14 10:55:00
6:15 AM,44.6,33.8,66,29.76,10.0,SSE,12.7,19.6,N/A,,Clear,160,2013-05-14 11:15:00
6:35 AM,44.6,33.8,66,29.75,10.0,SSE,16.1,20.7,N/A,,Clear,150,2013-05-14 11:35:00
6:55 AM,46.4,35.6,66,29.76,10.0,SSE,13.8,-,N/A,,Clear,150,2013-05-14 11:55:00
7:15 AM,46.4,35.6,66,29.76,10.0,SSE,11.5,-,N/A,,Clear,160,2013-05-14 12:15:00
7:35 AM,48.2,35.6,62,29.76,10.0,SSE,12.7,-,N/A,,Clear,160,2013-05-14 12:35:00
7:55 AM,48.2,37.4,66,29.75,10.0,SSE,10.4,-,N/A,,Clear,160,2013-05-14 12:55:00
8:15 AM,48.2,37.4,66,29.75,10.0,SSE,9.2,-,N/A,,Clear,160,2013-05-14 13:15:00
8:35 AM,50.0,37.4,62,29.74,10.0,South,9.2,-,N/A,,Clear,180,2013-05-14 13:35:00
8:55 AM,51.8,39.2,62,29.72,10.0,SSE,8.1,-,N/A,,Clear,160,2013-05-14 13:55:00
9:15 AM,51.8,39.2,62,29.73,10.0,South,8.1,-,N/A,,Clear,170,2013-05-14 14:15:00
9:35 AM,53.6,41.0,62,29.73,10.0,SSW,5.8,-,N/A,,Clear,200,2013-05-14 14:35:00
9:55 AM,53.6,41.0,62,29.75,10.0,Calm,Calm,-,N/A,,Clear,0,2013-05-14 14:55:00
10:15 AM,55.4,42.8,63,29.75,10.0,Calm,Calm,-,N/A,,Clear,0,2013-05-14 15:15:00
10:35 AM,57.2,42.8,59,29.75,10.0,North,3.5,-,N/A,,Clear,350,2013-05-14 15:35:00
10:55 AM,59.0,44.6,59,29.77,10.0,NE,3.5,-,N/A,,Clear,50,2013-05-14 15:55:00
11:15 AM,60.8,42.8,52,29.76,10.0,NNW,6.9,-,N/A,,Clear,330,2013-05-14 16:15:00
11:35 AM,59.0,42.8,55,29.76,10.0,North,5.8,-,N/A,,Clear,350,2013-05-14 16:35:00
11:55 AM,60.8,42.8,52,29.77,10.0,North,5.8,-,N/A,,Clear,360,2013-05-14 16:55:00
12:15 PM,60.8,42.8,52,29.77,10.0,NW,10.4,-,N/A,,Clear,320,2013-05-14 17:15:00
12:35 PM,57.2,39.2,51,29.80,10.0,NNW,11.5,-,N/A,,Clear,330,2013-05-14 17:35:00
12:55 PM,55.4,39.2,54,29.81,10.0,NNW,9.2,-,N/A,,Clear,330,2013-05-14 17:55:00
1:15 PM,57.2,39.2,51,29.81,10.0,North,9.2,-,N/A,,Clear,10,2013-05-14 18:15:00
1:35 PM,57.2,41.0,55,29.79,10.0,NNE,6.9,-,N/A,,Clear,20,2013-05-14 18:35:00
1:55 PM,59.0,39.2,48,29.79,10.0,North,6.9,-,N/A,,Clear,360,2013-05-14 18:55:00
2:15 PM,60.8,41.0,48,29.78,10.0,North,3.5,-,N/A,,Clear,350,2013-05-14 19:15:00
2:35 PM,60.8,42.8,52,29.77,10.0,North,5.8,-,N/A,,Clear,10,2013-05-14 19:35:00
2:55 PM,60.8,42.8,52,29.75,10.0,Calm,Calm,-,N/A,,Clear,0,2013-05-14 19:55:00
3:15 PM,62.6,42.8,48,29.76,10.0,Calm,Calm,-,N/A,,Clear,0,2013-05-14 20:15:00
3:35 PM,60.8,42.8,52,29.74,10.0,East,10.4,-,N/A,,Clear,90,2013-05-14 20:35:00
3:55 PM,60.8,42.8,52,29.71,10.0,ESE,13.8,-,N/A,,Clear,110,2013-05-14 20:55:00
4:15 PM,57.2,41.0,55,29.71,10.0,SE,10.4,-,N/A,,Partly Cloudy,130,2013-05-14 21:15:00
4:35 PM,53.6,39.2,58,29.71,10.0,ESE,12.7,-,N/A,,Scattered Clouds,120,2013-05-14 21:35:00
4:55 PM,51.8,39.2,62,29.72,10.0,ESE,10.4,-,N/A,,Mostly Cloudy,110,2013-05-14 21:55:00
5:15 PM,51.8,39.2,62,29.68,10.0,ESE,12.7,-,N/A,,Clear,120,2013-05-14 22:15:00
5:35 PM,51.8,39.2,62,29.68,10.0,East,11.5,16.1,N/A,,Clear,100,2013-05-14 22:35:00
5:55 PM,51.8,39.2,62,29.67,10.0,ESE,10.4,-,N/A,,Clear,110,2013-05-14 22:55:00
6:15 PM,51.8,39.2,62,29.68,10.0,SSE,9.2,-,N/A,,Clear,150,2013-05-14 23:15:00
6:35 PM,51.8,39.2,62,29.67,10.0,SSE,10.4,-,N/A,,Clear,150,2013-05-14 23:35:00
6:55 PM,51.8,39.2,62,29.66,10.0,SSE,10.4,-,N/A,,Clear,150,2013-05-14 23:55:00
7:15 PM,51.8,39.2,62,29.66,10.0,SSE,11.5,-,N/A,,Clear,160,2013-05-15 00:15:00
7:35 PM,51.8,41.0,67,29.65,10.0,SSE,11.5,-,N/A,,Clear,150,2013-05-15 00:35:00
7:55 PM,51.8,39.2,62,29.63,10.0,SSE,11.5,-,N/A,,Clear,150,2013-05-15 00:55:00
8:15 PM,51.8,41.0,67,29.62,10.0,SSE,11.5,-,N/A,,Clear,150,2013-05-15 01:15:00
8:35 PM,53.6,42.8,67,29.62,10.0,SSE,12.7,-,N/A,,Scattered Clouds,150,2013-05-15 01:35:00
8:55 PM,51.8,42.8,71,29.61,10.0,SSE,12.7,-,N/A,,Mostly Cloudy,150,2013-05-15 01:55:00
9:15 PM,51.8,42.8,71,29.60,10.0,SSE,13.8,-,N/A,,Mostly Cloudy,160,2013-05-15 02:15:00
9:35 PM,53.6,42.8,67,29.59,10.0,South,15.0,-,N/A,,Mostly Cloudy,170,2013-05-15 02:35:00
9:55 PM,53.6,44.6,72,29.57,10.0,SSE,13.8,20.7,N/A,,Mostly Cloudy,160,2013-05-15 02:55:00
10:15 PM,55.4,44.6,67,29.56,10.0,South,16.1,23.0,N/A,,Partly Cloudy,170,2013-05-15 03:15:00
10:35 PM,55.4,44.6,67,29.55,10.0,South,19.6,26.5,N/A,,Clear,170,2013-05-15 03:35:00
10:55 PM,55.4,44.6,67,29.53,10.0,South,20.7,29.9,N/A,,Clear,170,2013-05-15 03:55:00
11:15 PM,55.4,44.6,67,29.51,10.0,South,20.7,27.6,N/A,,Clear,170,2013-05-15 04:15:00
11:35 PM,53.6,44.6,72,29.49,10.0,South,18.4,23.0,N/A,,Clear,170,2013-05-15 04:35:00
11:55 PM,53.6,44.6,72,29.47,10.0,South,16.1,21.9,N/A,,Clear,180,2013-05-15 04:55:00